カタログに戻る

SWIFT

運用中科学VLEO
NORAD 28485·PAYLOAD·🇺🇸 United States

打ち上げ Nov 20, 2004 から Cape Canaveral Space Force Station

Loading…

次のパス (今後24時間)

TLE

最新Source: Space-Track

元期: Sep 14, 2026, 04:55 UTC

1 28485U 04047A   26257.20538003  .00141533  00000-0  68693-3 0  9997
2 28485  20.5506 213.1233 0002476 196.8100 163.2267 15.80652070200908

AllMySatでSWIFTをリアルタイム追跡

Download on the App Store